DW9813 Weather Reports


Display with metric or nautical units.
time (UTC)temp
F
wind
direction
speed
MPH
gust
MPH
rain 1hr
in
rain 24hr
in
rain mn
in
humidity
%
barometer
mb
20190617214207 80 273 1.0 0.0 0.00 0.00 0.13 66 1011.7
20190617213706 80 253 1.0 0.0 0.00 0.00 0.13 66 1011.7
20190617213206 80 236 2.0 0.0 0.00 0.00 0.13 66 1011.8
20190617212705 80 247 3.0 0.0 0.00 0.00 0.13 66 1011.9
20190617212207 80 215 3.0 0.0 0.00 0.00 0.13 64 1011.8
20190617211707 80 221 2.0 0.0 0.00 0.00 0.13 66 1011.9
20190617211206 80 227 2.0 0.0 0.00 0.00 0.13 66 1011.9
20190617210706 80 248 2.0 0.0 0.00 0.00 0.13 66 1011.9
20190617210207 80 278 2.0 0.0 0.00 0.00 0.13 66 1012.0
20190617205712 81 169 3.0 0.0 0.00 0.00 0.13 66 1011.9
20190617205207 83 244 3.0 0.0 0.00 0.00 0.13 62 1012.1
20190617204712 82 155 3.0 0.0 0.00 0.00 0.13 64 1012.0
20190617204207 83 221 2.0 0.0 0.00 0.00 0.13 66 1012.1
20190617203706 81 141 3.0 0.0 0.00 0.00 0.13 68 1012.0
20190617203206 80 200 2.0 0.0 0.00 0.00 0.13 68 1012.1
20190617202706 80 157 2.0 0.0 0.00 0.00 0.13 69 1012.2
20190617202206 80 148 3.0 0.0 0.00 0.00 0.13 66 1012.1
20190617201705 80 145 3.0 0.0 0.00 0.00 0.13 71 1012.2
20190617201207 80 132 3.0 0.0 0.00 0.00 0.13 71 1012.3
20190617200715 80 143 3.0 0.0 0.00 0.00 0.13 69 1012.3
20190617200207 80 181 2.0 0.0 0.00 0.00 0.13 68 1012.4
20190617195705 79 149 2.0 0.0 0.00 0.00 0.13 71 1012.4
20190617195207 79 234 2.0 0.0 0.00 0.00 0.13 72 1012.5
20190617194706 80 130 3.0 0.0 0.00 0.00 0.13 68 1012.4
20190617194207 81 217 3.0 0.0 0.00 0.00 0.13 66 1012.4
20190617193706 81 169 4.0 0.0 0.00 0.00 0.13 71 1012.4
20190617193207 80 144 3.0 0.0 0.00 0.00 0.13 73 1012.5
20190617192705 79 136 3.0 0.0 0.00 0.00 0.13 69 1012.5
20190617192207 79 265 3.0 0.0 0.00 0.00 0.13 70 1012.5
20190617191708 79 136 3.0 0.0 0.00 0.00 0.13 71 1012.5
20190617191207 79 221 3.0 0.0 0.00 0.00 0.13 73 1012.6
20190617190706 78 148 5.0 0.0 0.00 0.00 0.13 70 1012.6
20190617190207 79 151 4.0 0.0 0.00 0.00 0.13 69 1012.7
20190617185705 80 152 2.0 0.0 0.00 0.00 0.13 67 1012.6
20190617185207 80 153 3.0 0.0 0.00 0.00 0.13 71 1012.7
20190617184706 81 199 3.0 0.0 0.00 0.00 0.13 73 1012.7
20190617184208 80 143 3.0 0.0 0.00 0.00 0.13 72 1012.7
20190617183705 80 142 4.0 0.0 0.00 0.00 0.13 68 1012.7
20190617183213 80 230 4.0 0.0 0.00 0.00 0.13 70 1012.7
20190617182705 80 153 3.0 0.0 0.00 0.00 0.13 71 1012.9
20190617182207 80 142 3.0 0.0 0.00 0.00 0.13 77 1012.9
20190617181707 78 192 3.0 0.0 0.00 0.00 0.13 74 1012.9
20190617181206 78 169 3.0 0.0 0.00 0.00 0.13 71 1012.9
20190617180714 80 165 4.0 0.0 0.00 0.00 0.13 71 1013.1
20190617180206 80 119 4.0 0.0 0.00 0.00 0.13 71 1013.1
20190617175707 80 200 3.0 0.0 0.00 0.00 0.13 73 1013.1
20190617175209 79 153 3.0 0.0 0.00 0.00 0.13 71 1013.2
20190617174706 78 232 3.0 0.0 0.00 0.00 0.13 74 1013.2
20190617174211 77 115 2.0 0.0 0.00 0.00 0.13 77 1013.2
20190617173707 76 160 2.0 0.0 0.00 0.00 0.13 76 1013.3
20190617173206 77 150 2.0 0.0 0.00 0.00 0.13 72 1013.3
20190617172706 77 158 1.0 0.0 0.00 0.00 0.13 79 1013.3
20190617172211 76 175 1.0 0.0 0.00 0.00 0.13 74 1013.3
20190617171705 76 193 1.0 0.0 0.00 0.00 0.13 77 1013.3
20190617171208 76 156 1.0 0.0 0.00 0.00 0.13 77 1013.4
20190617170705 76 67 2.0 0.0 0.00 0.00 0.13 77 1013.4
20190617170207 77 71 2.0 0.0 0.00 0.00 0.13 78 1013.3
20190617165706 76 349 2.0 0.0 0.00 0.00 0.13 82 1013.3
20190617165207 76 259 2.0 0.0 0.00 0.00 0.13 78 1013.2
20190617164707 77 280 2.0 0.0 0.00 0.00 0.13 75 1013.3
20190617164206 77 304 2.0 0.0 0.00 0.00 0.13 82 1013.2
20190617163714 75 313 2.0 0.0 0.00 0.00 0.13 80 1013.2
20190617163206 74 327 2.0 0.0 0.00 0.00 0.13 80 1013.2
20190617162705 74 229 2.0 0.0 0.00 0.00 0.13 80 1013.2
20190617162207 74 308 2.0 0.0 0.00 0.00 0.13 81 1013.2
20190617161707 74 277 2.0 0.0 0.00 0.00 0.13 81 1013.3
20190617161206 73 246 2.0 0.0 0.00 0.00 0.13 83 1013.3
20190617160706 73 173 2.0 0.0 0.00 0.00 0.13 83 1013.3
20190617160206 73 157 2.0 0.0 0.00 0.00 0.13 84 1013.3
20190617155706 73 158 2.0 0.0 0.00 0.00 0.13 84 1013.2
20190617155205 73 150 1.0 0.0 0.00 0.00 0.13 84 1013.2
20190617154706 73 219 2.0 0.0 0.00 0.00 0.13 83 1013.1
20190617154206 73 245 3.0 0.0 0.00 0.00 0.13 81 1013.1
20190617153705 73 226 3.0 0.0 0.00 0.00 0.13 83 1013.1
20190617153207 73 211 2.0 0.0 0.00 0.00 0.13 85 1013.1
20190617152705 72 188 2.0 0.0 0.00 0.00 0.13 85 1013.1
20190617152207 72 144 2.0 0.0 0.00 0.00 0.13 85 1013.1
20190617151706 72 198 3.0 0.0 0.00 0.00 0.13 85 1012.9
20190617151207 71 198 4.0 0.0 0.00 0.00 0.13 87 1012.8
20190617150707 71 168 3.0 0.0 0.00 0.00 0.13 86 1012.7
20190617150206 71 156 2.0 0.0 0.00 0.00 0.13 87 1012.7
20190617145706 71 146 2.0 0.0 0.00 0.00 0.13 87 1012.6
20190617145206 71 182 2.0 0.0 0.00 0.00 0.13 87 1012.6
20190617144706 70 153 2.0 0.0 0.00 0.00 0.13 88 1012.6
20190617144206 70 146 4.0 0.0 0.00 0.00 0.13 88 1012.7
20190617143706 70 137 4.0 0.0 0.00 0.00 0.13 89 1012.6
20190617143207 71 144 3.0 0.0 0.00 0.00 0.13 89 1012.6
20190617142706 70 153 3.0 0.0 0.00 0.00 0.13 89 1012.6
20190617142206 70 150 2.0 0.0 0.00 0.00 0.13 89 1012.7
20190617141707 70 150 2.0 0.0 0.00 0.00 0.13 91 1012.7
20190617141206 70 157 2.0 0.0 0.00 0.00 0.13 90 1012.8
20190617140710 69 153 2.0 0.0 0.00 0.00 0.13 90 1012.7
20190617140206 70 159 1.0 0.0 0.00 0.00 0.13 90 1012.7
20190617135707 70 213 1.0 0.0 0.00 0.00 0.13 90 1012.7
20190617135206 70 215 2.0 0.0 0.00 0.00 0.13 89 1012.5
20190617134706 70 236 2.0 0.0 0.00 0.00 0.13 90 1012.3
20190617134209 69 207 2.0 0.0 0.00 0.00 0.13 90 1012.3
20190617133705 70 155 2.0 0.0 0.00 0.00 0.13 91 1012.2
20190617133206 69 153 1.0 0.0 0.00 0.00 0.13 90 1012.2
20190617132706 69 115 2.0 0.0 0.00 0.00 0.13 91 1012.2
20190617132210 69 131 3.0 0.0 0.00 0.00 0.13 91 1012.2
20190617131708 69 128 3.0 0.0 0.00 0.00 0.13 92 1012.2
20190617131207 69 133 2.0 0.0 0.00 0.00 0.13 90 1012.0
20190617130705 69 152 3.0 0.0 0.00 0.00 0.13 92 1012.0
20190617130206 68 120 2.0 0.0 0.00 0.00 0.13 93 1012.0
20190617125705 68 98 2.0 0.0 0.00 0.00 0.13 94 1011.9
20190617125207 68 83 2.0 0.0 0.00 0.00 0.13 94 1011.8
20190617124705 68 121 3.0 0.0 0.00 0.00 0.13 94 1011.9
20190617124207 68 102 3.0 0.0 0.00 0.00 0.13 94 1012.0
20190617123706 67 119 3.0 0.0 0.00 0.00 0.13 95 1012.0
20190617123206 67 105 4.0 0.0 0.00 0.00 0.13 94 1011.9
20190617122705 67 101 3.0 0.0 0.00 0.00 0.13 95 1011.9
20190617122206 67 111 3.0 0.0 0.00 0.00 0.13 95 1011.9
20190617121706 67 109 2.0 0.0 0.00 0.00 0.13 95 1011.8
20190617121207 67 88 2.0 0.0 0.00 0.00 0.13 95 1011.8
20190617120705 67 117 2.0 0.0 0.00 0.00 0.13 95 1011.8
20190617120207 67 138 2.0 0.0 0.00 0.00 0.13 95 1011.9
20190617115706 67 129 3.0 0.0 0.00 0.00 0.13 95 1011.9
20190617115207 67 134 2.0 0.0 0.00 0.00 0.13 95 1011.9
20190617114705 67 134 2.0 0.0 0.00 0.00 0.13 95 1011.9
20190617114207 67 142 3.0 0.0 0.00 0.00 0.13 95 1011.9
20190617113707 67 148 3.0 0.0 0.00 0.00 0.13 95 1011.8
20190617113207 67 150 3.0 0.0 0.00 0.00 0.13 95 1011.7
20190617112706 67 145 2.0 0.0 0.00 0.02 0.13 94 1011.8
20190617112207 67 163 2.0 0.0 0.00 0.02 0.13 94 1011.7
20190617111706 67 163 1.0 0.0 0.00 0.03 0.13 94 1011.6
20190617111210 67 157 1.0 0.0 0.00 0.03 0.13 94 1011.5
20190617110706 67 168 1.0 0.0 0.00 0.03 0.13 94 1011.4
20190617110206 67 173 2.0 0.0 0.00 0.03 0.13 94 1011.4
20190617105706 67 163 2.0 0.0 0.00 0.04 0.13 95 1011.4
20190617105208 67 172 2.0 0.0 0.00 0.04 0.13 95 1011.3
20190617104707 67 156 2.0 0.0 0.00 0.04 0.13 94 1011.3
20190617104206 67 167 1.0 0.0 0.00 0.04 0.13 94 1011.2
20190617103707 67 155 2.0 0.0 0.00 0.04 0.13 94 1011.2
20190617103207 67 171 2.0 0.0 0.00 0.04 0.13 94 1011.2
20190617102705 67 164 3.0 0.0 0.00 0.04 0.13 94 1011.3
20190617102207 67 165 3.0 0.0 0.00 0.04 0.13 94 1011.3
20190617101707 67 151 4.0 0.0 0.00 0.04 0.13 94 1011.3
20190617101207 67 145 4.0 0.0 0.00 0.04 0.13 94 1011.3
20190617100706 67 147 4.0 0.0 0.00 0.04 0.13 94 1011.2
20190617100207 68 161 4.0 0.0 0.00 0.04 0.13 93 1011.2
20190617095707 68 169 3.0 0.0 0.00 0.04 0.13 94 1011.2
20190617095207 68 164 3.0 0.0 0.00 0.04 0.13 94 1011.2
20190617094706 68 180 3.0 0.0 0.00 0.04 0.13 94 1011.1
20190617094207 68 164 2.0 0.0 0.00 0.04 0.13 94 1011.1
20190617093206 68 150 4.0 0.0 0.00 0.04 0.13 94 1011.0
20190617092709 68 142 4.0 0.0 0.00 0.04 0.13 94 1011.1
20190617091706 68 153 2.0 0.0 0.00 0.05 0.13 95 1011.2
20190617091208 68 155 3.0 0.0 0.00 0.05 0.13 95 1011.1
20190617090707 68 160 3.0 0.0 0.00 0.05 0.13 95 1011.0
20190617090206 68 139 2.0 0.0 0.00 0.06 0.13 95 1011.0
20190617085706 69 155 3.0 0.0 0.00 0.06 0.13 95 1011.0
20190617085207 69 184 4.0 0.0 0.00 0.06 0.13 95 1010.9
20190617084706 69 147 4.0 0.0 0.00 0.06 0.13 94 1010.9
20190617084206 69 151 4.0 0.0 0.00 0.06 0.13 94 1010.9
20190617083214 69 135 3.0 0.0 0.00 0.07 0.13 94 1010.8
20190617082706 69 158 2.0 0.0 0.00 0.07 0.13 94 1010.8
20190617082207 69 163 3.0 0.0 0.00 0.07 0.13 94 1010.9
20190617081706 69 160 3.0 0.0 0.00 0.07 0.13 94 1011.0
20190617081205 69 154 3.0 0.0 0.00 0.07 0.13 94 1011.0
20190617080712 69 150 3.0 0.0 0.00 0.07 0.13 94 1011.0
20190617080207 69 152 3.0 0.0 0.00 0.07 0.13 93 1011.1
20190617075706 69 164 3.0 0.0 0.00 0.08 0.13 93 1011.1
20190617075208 69 157 2.0 0.0 0.00 0.08 0.13 94 1011.1
20190617074705 69 163 2.0 0.0 0.00 0.09 0.13 94 1011.0
20190617074207 69 154 2.0 0.0 0.00 0.09 0.13 93 1010.9
20190617073709 69 151 2.0 0.0 0.00 0.09 0.13 93 1010.9
20190617073207 69 161 2.0 0.0 0.00 0.09 0.13 93 1011.0
20190617072705 69 161 2.0 0.0 0.00 0.09 0.13 93 1011.0
20190617072207 69 156 2.0 0.0 0.00 0.12 0.13 93 1010.9
20190617071706 69 151 3.0 0.0 0.00 0.12 0.13 93 1011.0
20190617071206 69 140 2.0 0.0 0.00 0.12 0.13 93 1011.0
20190617070706 69 155 2.0 0.0 0.00 0.13 0.13 93 1011.0
20190617070207 69 154 1.0 0.0 0.00 0.13 0.13 93 1010.9
20190617065706 69 74 0.0 0.0 0.00 0.13 0.13 93 1010.9
20190617065207 69 69 0.0 0.0 0.00 0.13 0.13 92 1010.8
20190617064706 69 69 1.0 0.0 0.00 0.13 0.13 92 1010.8
20190617064206 69 69 1.0 0.0 0.00 0.13 0.00 92 1010.9
20190617063710 69 69 0.0 0.0 0.00 0.13 0.00 91 1010.9
20190617063207 69 69 0.0 0.0 0.00 0.13 0.00 91 1010.9
20190617062705 69 69 0.0 0.0 0.00 0.13 0.00 90 1010.9
20190617062207 70 69 0.0 0.0 0.00 0.13 0.00 90 1010.9
20190617061706 70 69 0.0 1.0 0.00 0.13 0.00 90 1010.8
20190617061209 70 69 0.0 1.0 0.00 0.13 0.00 89 1010.8
20190617060707 70 69 0.0 3.0 0.00 0.13 0.00 89 1010.9
20190617060206 70 69 1.0 5.0 0.00 0.13 0.00 89 1010.9
20190617055706 70 69 2.0 5.0 0.00 0.13 0.00 89 1010.9
20190617055207 70 69 2.0 4.0 0.00 0.13 0.00 89 1010.9
20190617054707 70 138 1.0 4.0 0.00 0.13 0.00 88 1010.8
20190617054207 70 264 1.0 4.0 0.00 0.13 0.00 87 1010.7
20190617053706 70 293 1.0 4.0 0.00 0.13 0.00 87 1010.6
20190617053207 70 255 1.0 5.0 0.00 0.13 0.00 87 1010.5
20190617052706 71 232 2.0 5.0 0.00 0.13 0.00 87 1010.5
20190617052207 71 273 2.0 4.0 0.00 0.13 0.00 86 1010.5
20190617051706 71 215 2.0 3.0 0.00 0.13 0.00 86 1010.6
20190617051207 71 260 3.0 0.0 0.00 0.00 0.09 85 1010.7
20190617050705 71 262 3.0 0.0 0.00 0.00 0.09 85 1010.8
20190617050207 71 225 3.0 0.0 0.00 0.00 0.09 85 1010.9
20190617045706 71 178 3.0 0.0 0.00 0.00 0.09 84 1011.0
20190617045206 71 227 3.0 0.0 0.00 0.00 0.09 85 1011.0
20190617044707 71 211 2.0 0.0 0.00 0.00 0.09 85 1011.0
20190617044206 71 165 2.0 0.0 0.00 0.00 0.09 85 1011.1
20190617043705 71 149 1.0 0.0 0.00 0.00 0.09 85 1011.0
20190617043206 71 159 1.0 0.0 0.00 0.00 0.09 85 1010.9
20190617042706 71 148 1.0 0.0 0.00 0.00 0.09 85 1010.8
20190617042207 71 160 1.0 0.0 0.00 0.00 0.09 85 1010.9
20190617041707 71 162 3.0 0.0 0.00 0.00 0.09 85 1010.8
20190617041205 71 161 3.0 0.0 0.00 0.00 0.09 85 1010.7
20190617040707 72 147 2.0 0.0 0.00 0.00 0.09 85 1010.7
20190617040206 71 157 2.0 0.0 0.00 0.00 0.09 85 1010.7
20190617035706 72 171 2.0 0.0 0.00 0.00 0.09 85 1010.6
20190617035206 72 167 2.0 0.0 0.00 0.00 0.09 84 1010.4
20190617034706 72 154 2.0 0.0 0.00 0.00 0.09 84 1010.4
20190617034207 72 150 3.0 0.0 0.00 0.00 0.09 84 1010.4
20190617033706 72 136 3.0 0.0 0.00 0.00 0.09 84 1010.3
20190617033206 72 153 3.0 0.0 0.00 0.00 0.09 85 1010.2
20190617032706 72 157 3.0 0.0 0.00 0.00 0.09 84 1010.2
20190617032206 72 153 3.0 0.0 0.00 0.00 0.09 84 1010.2
20190617031709 72 140 3.0 0.0 0.00 0.00 0.09 84 1010.1
20190617031206 72 205 2.0 0.0 0.00 0.00 0.09 84 1010.2
20190617030709 72 170 2.0 0.0 0.00 0.00 0.09 84 1010.2
20190617030207 72 142 2.0 0.0 0.00 0.00 0.09 84 1010.2
20190617025706 72 170 2.0 0.0 0.00 0.00 0.09 83 1010.2
20190617025206 72 219 2.0 0.0 0.00 0.00 0.09 84 1010.3
20190617024706 73 166 2.0 0.0 0.00 0.00 0.09 83 1010.3
20190617024205 73 190 2.0 0.0 0.00 0.00 0.09 83 1010.4
20190617023706 73 211 2.0 0.0 0.00 0.00 0.13 84 1010.3
20190617023206 73 183 2.0 0.0 0.00 0.00 0.13 84 1010.3
20190617022706 73 176 2.0 0.0 0.00 0.00 0.13 83 1010.3
20190617022206 73 189 2.0 0.0 0.00 0.00 0.13 83 1010.4
20190617021706 73 167 2.0 0.0 0.00 0.00 0.13 83 1010.4
20190617021208 73 162 2.0 0.0 0.00 0.00 0.13 83 1010.3
20190617020705 73 179 2.0 0.0 0.00 0.00 0.13 82 1010.3
20190617020207 73 169 2.0 0.0 0.00 0.00 0.13 82 1010.2
20190617015705 73 229 3.0 0.0 0.00 0.00 0.13 82 1010.2
20190617015207 73 161 3.0 0.0 0.00 0.00 0.13 81 1010.3
20190617014705 74 180 3.0 0.0 0.00 0.00 0.13 80 1010.4
20190617014206 74 202 3.0 0.0 0.00 0.00 0.13 80 1010.4
20190617013706 74 219 4.0 0.0 0.00 0.00 0.13 79 1010.4
20190617013206 74 200 4.0 0.0 0.00 0.00 0.13 79 1010.4
20190617012706 74 222 5.0 0.0 0.00 0.00 0.13 79 1010.4
20190617012207 74 159 5.0 0.0 0.00 0.00 0.13 79 1010.4
20190617011706 74 259 5.0 0.0 0.00 0.00 0.13 78 1010.3
20190617011205 74 204 5.0 0.0 0.00 0.00 0.13 78 1010.2
20190617010706 74 236 4.0 0.0 0.00 0.00 0.13 79 1010.2
20190617010206 74 184 3.0 0.0 0.00 0.00 0.13 79 1010.1
20190617005706 74 140 3.0 0.0 0.00 0.00 0.13 78 1009.9
20190617005207 74 190 3.0 0.0 0.00 0.00 0.13 79 1009.6
20190617004705 74 211 4.0 0.0 0.00 0.00 0.13 78 1009.4
20190617004206 74 148 4.0 0.0 0.00 0.00 0.13 78 1009.5
20190617003706 75 150 5.0 0.0 0.00 0.00 0.13 77 1009.4
20190617003207 75 157 5.0 0.0 0.00 0.00 0.13 76 1009.5
20190617002707 76 207 4.0 0.0 0.00 0.00 0.13 76 1009.5
20190617002206 76 175 3.0 0.0 0.00 0.00 0.13 77 1009.7
20190617001706 76 188 4.0 0.0 0.00 0.00 0.13 76 1009.7
20190617001207 76 173 5.0 0.0 0.00 0.00 0.13 76 1009.8
20190617000706 76 224 5.0 0.0 0.00 0.00 0.13 75 1009.9
20190617000209 76 175 5.0 0.0 0.00 0.00 0.13 75 1009.8
20190616235706 77 200 5.0 0.0 0.00 0.13 0.13 74 1009.8
20190616235206 77 163 4.0 0.0 0.00 0.13 0.13 75 1009.6
20190616234707 77 200 4.0 0.0 0.00 0.13 0.13 75 1009.5
20190616234206 77 188 3.0 0.0 0.00 0.13 0.13 76 1009.4
20190616233706 77 165 3.0 0.0 0.00 0.13 0.13 76 1009.3
20190616233206 78 165 4.0 0.0 0.00 0.13 0.13 76 1009.2
20190616232205 78 148 3.0 0.0 0.00 0.13 0.13 77 1009.1
20190616231706 78 219 4.0 0.0 0.00 0.13 0.13 76 1009.1
20190616231206 78 138 5.0 0.0 0.00 0.13 0.13 76 1009.1
20190616230706 78 153 6.0 0.0 0.00 0.13 0.13 75 1009.2
20190616230206 78 156 8.0 0.0 0.00 0.13 0.13 75 1009.1
20190616225707 78 158 7.0 0.0 0.00 0.13 0.13 76 1009.1
20190616225207 79 120 3.0 0.0 0.00 0.13 0.13 75 1009.0
20190616224706 79 167 3.0 0.0 0.00 0.13 0.13 77 1009.1
20190616224208 79 167 4.0 0.0 0.00 0.13 0.13 76 1009.3
20190616223706 79 229 4.0 0.0 0.00 0.13 0.13 76 1009.2
20190616223207 79 157 4.0 0.0 0.00 0.13 0.13 75 1009.3
20190616222706 79 165 6.0 0.0 0.00 0.13 0.13 74 1009.4
20190616222206 79 190 6.0 0.0 0.00 0.13 0.13 74 1009.4
20190616221707 80 147 4.0 7.0 0.00 0.13 0.13 73 1009.4
20190616221207 80 153 3.0 10.0 0.00 0.13 0.13 72 1009.5
20190616220706 80 165 4.0 10.0 0.00 0.13 0.13 73 1009.5
20190616220205 80 225 5.0 10.0 0.00 0.13 0.13 71 1009.4
20190616215707 80 151 5.0 8.0 0.00 0.13 0.13 69 1009.3
20190616215211 81 155 4.0 9.0 0.00 0.13 0.13 70 1009.3
20190616214712 81 154 4.0 10.0 0.00 0.13 0.13 70 1009.3